Location: Paris
(48.6709°N, 2.3750°E)
Time: 09:14:50
(UTC+02:00)

LO-87 - Pass Details

Date: 27 June 2022
Orbit: 450 x 466 km, 97.4° (Epoch: 17 August)

Event Time Altitude Azimuth Distance (km) Brightness Sun altitude
Exits shadow 00:55:41 33° 122° (ESE) 796 ? -16.8°
Maximum altitude 00:56:47 46° 72° (ENE) 626 ? -16.9°
Drops below altitude 10° 01:00:08 10° 358° (N) 1,620 ? -17.0°
Sets 01:02:14 0° 353° (N) 2,505 ? -17.1°
